www.pogodaiklimat.ru

Погода и климат >> Архив погоды >> Французская Полинезия >> Bora-Bora Airport


ПОГОДА в Bora-Bora Airport

  • Прогноз погоды в Bora-Bora Airport
  • Монитор погоды в Bora-Bora Airport
  • Климат города

АРХИВ ПОГОДЫ в Bora-Bora Airport

Время (UTC), дата Ветер
(напр.,м/с)
 
Видим.   Явления Облачность Т
(С)
Тd
(С)
f
(%)
Тe
(С)
Тes
(С)
Комфортность P
(гПа)
Po
(гПа)
Тmin
(С)
Tmax
(С)
R
(мм)
R24
(мм)
S
(см)
16 13.05 ЮВ 1-1
{2}
40 км н/о +26.3 +23.2 83 +35 +35 очень
душно
1013.7 1013.4
17 13.05 Ю 3-5
{6}
35 км 10/10 300 м
[]
+24.9 +22.8 88 +33 +33 очень
душно
1014.7 1014.4 1
18 13.05 СВ 1 400 м сильный дождь 9/9 200 м
[]
+24.2 +22.1 88 +31 +32 очень
душно
1015.8 1015.5 +24.2 +27.9 12
20 13.05 З 1-1
{2}
60 км слабый дождь н/о +26.3 +21.9 77 +34 +34 очень
душно
1015.6 1015.3 0.0
19 13.05 ЮЗ 2-3
{3}
35 км слабый дождь н/о +25.3 +22.6 85 +33 +33 очень
душно
1015.7 1015.4 9
21 13.05 СВ 2-3
{3}
40 км слабый дождь н/о +26.3 +21.7 76 +34 +34 очень
душно
1015.3 1015.0 9
22 13.05 В 2-2
{3}
55 км слабый дождь н/о +27.4 +23.0 77 +37 +37 очень
душно
1014.2 1013.9 0.0
23 13.05 В 3-5
{5}
30 км н/о +26.0 +22.7 82 +34 +34 очень
душно
1014.0 1013.7 0.0
00 14.05 В 3-4
{6}
23 км н/о +26.8 +22.8 79 +36 +36 очень
душно
1013.1 1012.8 0.0
02 14.05 В 4-5
{6}
45 км 9/3 300 м
[]
+26.5 +23.0 81 +35 +36 очень
душно
1012.7 1012.4
01 14.05 В 3-4
{4}
60 км н/о +27.2 +22.2 74 +35 +35 очень
душно
1012.7 1012.4
03 14.05 В 4-6
{6}
19 км 9/3 300 м
[]
+26.2 +21.8 77 +34 +34 очень
душно
1012.7 1012.4
04 14.05 В 4-5
{6}
24 км 9/9
[]
+26.3 +21.9 77 +34 +34 очень
душно
1013.3 1013.0
05 14.05 В 3-4
{6}
16 км 10/10
[]
+27.2 +23.0 78 +36 +36 очень
душно
1013.7 1013.4
06 14.05 СВ 4 21 км 10/0
[]
+27.9 +22.4 72 +37 +37 очень
душно
1014.0 1013.7 +23.9 +28.1
08 14.05 В 2-3
{3}
35 км 10/1 600 м
[]
+27.2 +22.6 76 +36 +36 очень
душно
1014.7 1014.4
07 14.05 СВ 3-4
{4}
26 км 9/9
[]
+27.7 +22.0 71 +36 +36 очень
душно
1014.5 1014.2
09 14.05 В 2-3
{3}
24 км 10/4 600 м
[]
+27.3 +22.9 77 +36 +36 очень
душно
1014.5 1014.2
10 14.05 В 3-4
{4}
21 км 9/4 600 м
[]
+27.4 +23.0 77 +37 +37 очень
душно
1014.1 1013.8
11 14.05 В 4-5
{5}
22 км 9/3 600 м
[]
+27.2 +23.0 78 +36 +36 очень
душно
1013.9 1013.6
12 14.05 В 3-4
{5}
21 км н/о +27.1 +22.7 77 +36 +36 очень
душно
1013.5 1013.2
14 14.05 В 3-4
{4}
19 км н/о +27.1 +22.9 78 +36 +36 очень
душно
1012.5 1012.2
13 14.05 В 3-4
{4}
19 км 8/1 600 м
[]
+27.0 +22.8 78 +36 +36 очень
душно
1012.8 1012.5
15 14.05 В 3-5
{5}
23 км н/о +27.4 +21.0 68 +34 +34 очень
душно
1012.4 1012.1
16 14.05 В 3-4
{5}
22 км н/о +27.3 +23.1 78 +37 +37 очень
душно
1013.2 1012.9
17 14.05 В 3-4
{4}
24 км н/о +27.5 +23.1 77 +37 +37 очень
душно
1014.0 1013.7
18 14.05 В 4 26 км н/о +28.0 +22.5 72 +37 +37 очень
душно
1014.6 1014.3 +26.9 +28.2
20 14.05 В 4-5
{5}
17 км н/о +28.8 +22.5 69 +38 +38 очень
душно
1015.3 1015.0
19 14.05 В 4-5
{5}
27 км н/о +28.2 +22.2 70 +37 +37 очень
душно
1015.5 1015.2
21 14.05 В 4-5
{5}
14 км н/о +29.2 +22.7 68 +39 +39 очень
душно
1014.4 1014.1
22 14.05 В 3-4
{6}
13 км н/о +29.0 +22.7 69 +38 +38 очень
душно
1013.8 1013.5
23 14.05 В 3-5
{5}
19 км н/о +29.3 +22.0 65 +38 +38 очень
душно
1013.4 1013.1
00 15.05 В 4-5
{6}
10 км н/о +29.0 +21.5 64 +37 +37 очень
душно
1012.7 1012.4
02 15.05 В 3-5
{5}
18 км н/о +28.2 +22.0 69 +36 +36 очень
душно
1012.2 1011.9
01 15.05 В 3-5
{5}
19 км н/о +28.7 +22.2 68 +37 +37 очень
душно
1012.2 1011.9
03 15.05 В 3-5
{5}
20 км н/о +27.7 +21.3 68 +35 +35 очень
душно
1012.3 1012.0
04 15.05 В 4-5
{5}
30 км н/о +27.3 +21.8 72 +35 +35 очень
душно
1012.9 1012.6
05 15.05 В 7
{10}
40 км н/о +27.8 +20.9 66 +35 +35 очень
душно
1013.5 1013.2
06 15.05 В 6 45 км н/о +26.8 +22.0 75 +35 +35 очень
душно
1014.1 1013.8 +26.7 +29.5
08 15.05 В 6
{10}
55 км н/о +27.1 +21.6 72 +35 +35 очень
душно
1014.6 1014.3
07 15.05 В 6
{10}
55 км н/о +26.8 +21.6 73 +34 +34 очень
душно
1014.3 1014.0
09 15.05 В 7
{11}
45 км 10/10 600 м
[]
+26.9 +22.5 77 +35 +35 очень
душно
1014.5 1014.2
10 15.05 В 5
{9}
55 км 10/0
[]
+27.1 +22.3 75 +35 +35 очень
душно
1014.4 1014.1
11 15.05 В 3-4
{4}
60 км 10/10 2000 м
[]
+26.9 +21.9 74 +35 +35 очень
душно
1013.7 1013.4 0.0
12 15.05 В 4-6
{6}
55 км 10/10 2000 м
[]
+25.9 +21.6 77 +33 +33 очень
душно
1013.8 1013.5 0.0
14 15.05 ЮВ 1-4
{5}
н/о слабый дождь н/о +23.5 +21.2 87 +30 +30 очень
душно
1013.8 1013.5 0.4
13 15.05 ЮВ 4-5
{7}
10 км слабый дождь 10/8 200 м
[]
+23.8 +21.9 89 +31 +31 очень
душно
1014.0 1013.7 1
15 15.05 ЮВ 2-3
{4}
н/о слабый дождь н/о +23.9 +21.6 87 +31 +31 очень
душно
1013.6 1013.3 2
16 15.05 ЮВ 3-3
{4}
н/о слабый дождь н/о +24.9 +21.4 81 +32 +32 очень
душно
1013.8 1013.5 0.0
17 15.05 В 2-3
{4}
н/о слабый дождь н/о +24.8 +22.7 88 +33 +33 очень
душно
1014.5 1014.2 0.0
18 15.05 В 2 н/о н/о +25.7 +23.6 88 +35 +35 очень
душно
1015.0 1014.7 +23.3 +27.3 0.0
20 15.05 ЮВ 3-5
{5}
20 км н/о +27.2 +23.7 81 +37 +37 очень
душно
1015.2 1014.9 0.0
19 15.05 В 2-4
{5}
5000 м слабый дождь 10/10 300 м
[]
+25.3 +23.9 92 +35 +35 очень
душно
1015.3 1015.0 5
21 15.05 В 4-6
{6}
2400 м дождь 10/9 300 м
[]
+25.5 +23.7 90 +35 +35 очень
душно
1015.0 1014.7 5
22 15.05 В 2-4
{6}
29 км н/о +27.5 +24.7 85 +39 +39 очень
душно
1013.5 1013.2 4
23 15.05 В 4-6
{6}
26 км н/о +28.1 +24.1 79 +39 +39 очень
душно
1012.7 1012.4 0.2
00 16.05 В 5-6
{6}
26 км н/о +28.7 +24.3 77 +40 +40 очень
душно
1011.9 1011.6 4
02 16.05 В 4-6
{6}
35 км н/о +28.1 +23.7 77 +39 +39 очень
душно
1011.5 1011.2
01 16.05 В 5-7
{7}
35 км н/о +27.9 +23.7 78 +38 +38 очень
душно
1011.5 1011.2
03 16.05 В 3-5
{6}
27 км н/о +27.8 +23.2 76 +37 +37 очень
душно
1012.2 1011.9
04 16.05 В 4-5
{6}
19 км н/о +27.4 +23.6 80 +37 +37 очень
душно
1012.6 1012.3
05 16.05 В 6
{9}
21 км н/о +27.5 +23.5 79 +37 +37 очень
душно
1013.3 1013.0
06 16.05 В 6 13 км 10/0 2000 м
[]
+27.7 +23.1 76 +37 +37 очень
душно
1013.6 1013.3 +24.2 +28.9
08 16.05 В 3-4
{5}
16 км н/о +27.4 +23.4 79 +37 +37 очень
душно
1014.1 1013.8
07 16.05 В 6
{9}
17 км н/о +27.4 +23.4 79 +37 +37 очень
душно
1013.8 1013.5
09 16.05 В 3-5
{5}
17 км н/о +27.3 +23.5 80 +37 +37 очень
душно
1014.0 1013.7
10 16.05 В 3-5
{5}
16 км н/о +27.4 +23.6 80 +37 +37 очень
душно
1013.8 1013.5 0.0
11 16.05 В 4-5
{5}
17 км н/о +27.5 +23.5 79 +37 +37 очень
душно
1013.6 1013.3
12 16.05 В 3-5
{6}
15 км 8/6 600 м
[]
+27.2 +23.2 79 +37 +37 очень
душно
1013.3 1013.0 0.6
14 16.05 В 3-5
{5}
35 км 9/9 600 м
[]
+26.7 +23.4 82 +36 +36 очень
душно
1013.1 1012.8
13 16.05 В 3-4
{5}
30 км н/о +26.5 +23.4 83 +36 +36 очень
душно
1012.9 1012.6
15 16.05 ЮВ 2-2
{4}
27 км 10/9 600 м
[]
+25.0 +22.5 86 +33 +33 очень
душно
1013.4 1013.1 1
16 16.05 В 3-4
{6}
35 км н/о +25.8 +22.7 83 +34 +34 очень
душно
1014.1 1013.8
17 16.05 В 2-2
{6}
30 км н/о +24.5 +22.6 89 +32 +32 очень
душно
1014.8 1014.5 1
18 16.05 В 3 40 км н/о +27.2 +23.4 80 +37 +37 очень
душно
1015.5 1015.2 +24.2 +27.7 1
20 16.05 В 4-6
{6}
45 км н/о +28.3 +23.4 75 +38 +38 очень
душно
1015.9 1015.6
19 16.05 В 3-5
{5}
40 км н/о +28.8 +23.7 74 +39 +39 очень
душно
1016.0 1015.7
21 16.05 В 4-5
{6}
50 км н/о +29.2 +23.4 71 +40 +40 очень
душно
1015.3 1015.0
22 16.05 В 3-4
{5}
50 км н/о +29.4 +23.6 71 +40 +40 очень
душно
1014.7 1014.4
23 16.05 В 4-5
{5}
45 км н/о +29.2 +23.4 71 +40 +40 очень
душно
1014.2 1013.9
00 17.05 В 3-4
{6}
19 км н/о +29.6 +23.5 70 +40 +40 очень
душно
1013.8 1013.5
02 17.05 В 3-4
{4}
60 км н/о +29.3 +23.5 71 +40 +40 очень
душно
1013.8 1013.5
01 17.05 В 3-4
{5}
20 км н/о +29.4 +23.8 72 +40 +40 очень
душно
1013.7 1013.4
03 17.05 В 3-5
{5}
45 км н/о +28.1 +22.6 72 +37 +37 очень
душно
1013.8 1013.5
04 17.05 В 3-4
{5}
45 км н/о +27.3 +22.9 77 +36 +36 очень
душно
1014.1 1013.8
05 17.05 В 5
{9}
45 км н/о +26.5 +23.2 82 +36 +36 очень
душно
1014.6 1014.3 0.0
06 17.05 В 5 45 км н/о +26.7 +23.0 80 +36 +36 очень
душно
1015.1 1014.8 +26.4 +30.0 0.0
08 17.05 В 5
{10}
45 км н/о +26.9 +22.7 78 +36 +36 очень
душно
1015.4 1015.1
07 17.05 В 5
{7}
50 км н/о +26.8 +23.1 80 +36 +36 очень
душно
1015.1 1014.8
09 17.05 В 6
{10}
50 км н/о +27.1 +22.7 77 +36 +36 очень
душно
1015.3 1015.0
10 17.05 В 5
{11}
35 км н/о +27.1 +22.7 77 +36 +36 очень
душно
1015.0 1014.7 0.0
11 17.05 В 7
{10}
21 км н/о +27.2 +23.0 78 +36 +36 очень
душно
1014.6 1014.3
12 17.05 В 6
{10}
55 км н/о +26.9 +21.6 73 +34 +34 очень
душно
1014.2 1013.9 0.0
14 17.05 В 3-5
{5}
50 км н/о +26.7 +22.3 77 +35 +35 очень
душно
1013.7 1013.4
13 17.05 В 5
{9}
55 км н/о +26.6 +22.2 77 +35 +35 очень
душно
1013.9 1013.6
15 17.05 В 3-4
{5}
55 км н/о +26.7 +22.1 76 +35 +35 очень
душно
1014.0 1013.7
16 17.05 В 3-5
{5}
50 км н/о +26.8 +22.2 76 +35 +35 очень
душно
1014.4 1014.1
17 17.05 В 3-4
{5}
55 км 8/8 600 м
[]
+26.8 +22.6 78 +35 +35 очень
душно
1015.2 1014.9
18 17.05 В 2 30 км 8/1 600 м
[]
+26.1 +23.0 83 +35 +36 очень
душно
1015.8 1015.5 +25.9 +27.5 0.8
20 17.05 В 4-5
{6}
35 км н/о +28.8 +23.0 71 +39 +39 очень
душно
1016.2 1015.9
19 17.05 В 3-4
{5}
35 км н/о +28.1 +23.5 76 +38 +38 очень
душно
1016.2 1015.9 0.0
21 17.05 В 4-5
{6}
35 км н/о +29.1 +24.0 74 +40 +40 очень
душно
1015.7 1015.4 0.0
22 17.05 В 4-6
{6}
35 км н/о +29.5 +23.0 68 +39 +39 очень
душно
1015.0 1014.7
23 17.05 В 3-5
{6}
30 км н/о +29.0 +23.2 71 +39 +39 очень
душно
1014.5 1014.2
00 18.05 В 3-4
{5}
50 км н/о +29.0 +22.7 69 +38 +38 очень
душно
1013.7 1013.4
02 18.05 В 3-4
{5}
60 км н/о +28.8 +23.5 73 +39 +39 очень
душно
1013.4 1013.1
01 18.05 ЮВ 3-4
{4}
55 км н/о +29.2 +23.4 71 +40 +40 очень
душно
1013.5 1013.2
03 18.05 В 3-4
{5}
50 км н/о +28.1 +22.8 73 +37 +37 очень
душно
1013.9 1013.6
04 18.05 В 3-5
{5}
50 км н/о +27.6 +22.3 73 +36 +36 очень
душно
1014.3 1014.0
05 18.05 В 3-4
{5}
40 км н/о +27.3 +22.7 76 +36 +36 очень
душно
1015.0 1014.7
06 18.05 В 3 23 км н/о +27.3 +22.7 76 +36 +36 очень
душно
1015.2 1014.9 +26.1 +29.9
08 18.05 В 3-4
{5}
35 км н/о +26.9 +22.5 77 +35 +35 очень
душно
1015.6 1015.3 0.0
07 18.05 В 3-4
{5}
23 км н/о +27.4 +22.8 76 +36 +36 очень
душно
1015.7 1015.4
09 18.05 В 3-4
{4}
55 км н/о +27.0 +22.4 76 +35 +35 очень
душно
1015.3 1015.0 0.0
10 18.05 В 3-4
{4}
55 км н/о +26.8 +22.6 78 +35 +35 очень
душно
1015.1 1014.8
11 18.05 В 3-3
{4}
55 км н/о +26.6 +22.7 79 +35 +35 очень
душно
1014.7 1014.4
12 18.05 ЮВ 2-4
{4}
60 км н/о +26.3 +22.4 79 +34 +34 очень
душно
1014.1 1013.8
14 18.05 В 2-4
{4}
55 км 9/9 600 м
[]
+26.0 +22.9 83 +35 +35 очень
душно
1013.5 1013.2 0.2
13 18.05 В 3-4
{4}
27 км 9/9 600 м
[]
+26.3 +23.0 82 +35 +35 очень
душно
1013.7 1013.4
15 18.05 В 2-3
{4}
60 км н/о +26.3 +21.7 76 +34 +34 очень
душно
1013.7 1013.4 0.2
16 18.05 В 3-4
{4}
60 км н/о +26.4 +21.8 76 +34 +34 очень
душно
1014.2 1013.9
17 18.05 В 2-4
{4}
55 км н/о +26.4 +22.5 79 +35 +35 очень
душно
1014.9 1014.6
18 18.05 В 2 60 км 8/8 600 м
[]
+27.9 +22.8 74 +37 +38 очень
душно
1015.4 1015.1 +25.9 +27.9
20 18.05 В 3-4
{4}
60 км н/о +27.8 +21.8 70 +36 +36 очень
душно
1015.3 1015.0
19 18.05 В 3-4
{4}
60 км н/о +27.4 +21.9 72 +35 +35 очень
душно
1015.6 1015.3
21 18.05 В 3-4
{4}
60 км н/о +29.3 +22.5 67 +39 +39 очень
душно
1014.9 1014.6
22 18.05 В 2-4
{4}
60 км н/о +29.4 +22.9 68 +39 +39 очень
душно
1014.4 1014.1
23 18.05 В 2-4
{4}
60 км н/о +29.3 +22.3 66 +38 +38 очень
душно
1013.9 1013.6
00 19.05 ЮВ 2-3
{4}
60 км н/о +29.3 +22.0 65 +38 +38 очень
душно
1013.5 1013.2
02 19.05 ЮВ 1-2
{5}
50 км 10/9 300 м
[]
+25.9 +23.6 87 +35 +35 очень
душно
1013.3 1013.0 6
01 19.05 ЮВ 2-3
{3}
29 км 8/6 600 м
[]
+28.3 +22.8 72 +38 +40 очень
душно
1013.3 1013.0 0.0
03 19.05 В 2-3
{4}
45 км н/о +26.7 +22.5 78 +35 +35 очень
душно
1013.5 1013.2 6
04 19.05 В 2-3
{3}
40 км н/о +26.5 +22.8 80 +35 +35 очень
душно
1013.9 1013.6
05 19.05 В 5
{7}
55 км н/о +26.3 +23.4 84 +36 +36 очень
душно
1014.4 1014.1
06 19.05 ЮВ 6 60 км н/о +26.3 +22.6 80 +35 +35 очень
душно
1015.0 1014.7 +25.4 +30.1
08 19.05 ЮВ 4
{11}
60 км 10/10 300 м
[]
+25.4 +23.1 87 +34 +34 очень
душно
1014.8 1014.5
07 19.05 ЮВ 6
{9}
60 км 9/9 300 м
[]
+25.7 +23.2 86 +34 +34 очень
душно
1014.9 1014.6
09 19.05 ЮВ 7
{12}
25 км 10/10 200 м
[]
+25.2 +23.3 89 +34 +34 очень
душно
1014.9 1014.6
10 19.05 В 4
{9}
35 км 10/10 200 м
[]
+25.0 +23.2 90 +33 +33 очень
душно
1014.1 1013.8 0.0
11 19.05 В 7
{12}
45 км 10/10 300 м
[]
+25.7 +23.6 88 +35 +35 очень
душно
1013.8 1013.5 0.6
12 19.05 В 8
{14}
50 км 10/10 300 м
[]
+25.8 +23.1 85 +34 +34 очень
душно
1013.3 1013.0 0.6
14 19.05 В 10
{15}
3500 м слабый дождь 10/10 300 м
[]
+25.2 +23.4 90 +34 +34 очень
душно
1012.8 1012.5 0.2
13 19.05 В 8
{13}
40 км 9/9 300 м
[]
+25.7 +23.4 87 +35 +35 очень
душно
1012.9 1012.6 0.6
15 19.05 СВ 5-7
{9}
15 км слабый дождь 10/9 300 м
[]
+25.2 +23.4 90 +34 +34 очень
душно
1013.2 1012.9 2
16 19.05 СВ 4-6
{6}
26 км н/о +25.8 +23.7 88 +35 +35 очень
душно
1013.1 1012.8 0.2
17 19.05 В 5-6
{6}
26 км н/о +26.8 +23.1 80 +36 +36 очень
душно
1013.8 1013.5
18 19.05 В 4 30 км 10/9 600 м
[]
+27.9 +23.3 76 +38 +38 очень
душно
1014.2 1013.9 +25.0 +28.0 0.2
20 19.05 В 4-6
{6}
26 км н/о +29.0 +22.7 69 +38 +38 очень
душно
1014.5 1014.2
19 19.05 В 4-6
{6}
28 км н/о +28.4 +24.0 77 +39 +39 очень
душно
1014.6 1014.3
21 19.05 В 4-7
{8}
25 км 9/9 600 м
[]
+27.8 +23.6 78 +38 +39 очень
душно
1014.2 1013.9 0.0
22 19.05 В 4-6
{7}
11 км 8/8 600 м
[]
+29.2 +23.6 72 +40 +42 очень
душно
1013.7 1013.4
23 19.05 В 4-5
{6}
18 км 10/10 600 м
[]
+28.8 +22.8 70 +38 +38 очень
душно
1013.1 1012.8
00 20.05 В 4-6
{6}
14 км 10/10 600 м
[]
+29.1 +23.1 70 +39 +39 очень
душно
1012.6 1012.3
02 20.05 В 4-5
{6}
30 км н/о +28.2 +22.7 72 +37 +37 очень
душно
1012.5 1012.2
01 20.05 В 4-5
{6}
11 км н/о +29.0 +22.7 69 +38 +38 очень
душно
1012.3 1012.0
03 20.05 В 3-5
{5}
40 км н/о +27.6 +22.3 73 +36 +36 очень
душно
1012.8 1012.5
04 20.05 В 3-5
{6}
22 км н/о +27.4 +21.9 72 +35 +35 очень
душно
1013.3 1013.0
05 20.05 В 3-4
{5}
16 км н/о +27.4 +22.4 74 +36 +36 очень
душно
1013.7 1013.4
06 20.05 В 3 17 км н/о +27.2 +21.7 72 +35 +35 очень
душно
1014.0 1013.7 +27.2 +29.7
08 20.05 В 3-5
{5}
50 км н/о +27.2 +21.5 71 +35 +35 очень
душно
1015.0 1014.7
07 20.05 В 3-4
{5}
45 км н/о +27.1 +21.8 73 +35 +35 очень
душно
1014.7 1014.4
09 20.05 В 3-5
{5}
45 км н/о +27.1 +21.4 71 +34 +34 очень
душно
1015.1 1014.8
10 20.05 В 3-5
{5}
24 км н/о +27.0 +21.7 73 +35 +35 очень
душно
1014.6 1014.3
11 20.05 В 3-5
{5}
30 км н/о +27.0 +21.7 73 +35 +35 очень
душно
1014.4 1014.1
12 20.05 В 3-5
{5}
50 км н/о +26.7 +21.5 73 +34 +34 очень
душно
1014.0 1013.7
14 20.05 В 3-4
{4}
35 км н/о +26.7 +21.2 72 +34 +34 очень
душно
1013.5 1013.2
13 20.05 В 3-4
{5}
50 км н/о +26.6 +21.1 72 +34 +34 очень
душно
1013.5 1013.2

 

Местоположение метеостанции Bora-Bora Airport (Французская Полинезия): широта -16.43 долгота -151.70 высота над уровнем моря 3 м.

В архиве по умолчанию представлена погода в Bora-Bora Airport за последнюю неделю. Архивные данные за месяц целиком и за предыдущие месяцы, начиная с января 2011 года, Вы можете получить, выбрав интересующий диапазон дат из раскрывающегося списка и нажав кнопку "Ввод!".


*Определитесь, кто Вы:
робот инопланетянин человек

Внимание! Время в таблицах - всемирное. Для получения местного времени необходимо прибавить поправку, которая в Bora-Bora Airport равна -10 ч.

Смотрите также архив погоды в соседних городах и на ближайших метеорологических станциях:

Погода в Tahiti-Faaa (Французская Полинезия) (256 км)
Погода в Tautira (Французская Полинезия) (307 км)
Погода в Takaroa (Французская Полинезия) (750 км)
Погода в Hereheretue (Французская Полинезия) (806 км)
Погода в Tubuai (Французская Полинезия) (806 км)
Погода в Aitutaki (Кука Острова) (889 км)
Погода в Rarotonga (Кука Острова) (1004 км)
Погода в Penrhyn (Кука Острова) (1070 км)
Погода в Hao (Французская Полинезия) (1161 км)
Погода в Manihiki (Кука Острова) (1209 км)

Пояснения к столбцам:

Ветер - указаны скорость ветра в м/с - средняя за 10 мин, порывы в срок и между сроками (в фигурных скобках) и направление, откуда дует ветер: С - северный, СВ - северо-восточный, В - восточный, ЮВ - юго-восточный, Ю - южный, ЮЗ - юго-западный, З - западный, СЗ - северо-западный.
Видимость - горизонтальная дальность видимости в метрах или километрах. При видимости от 1 до 10 км при отсутствии осадков обычно наблюдается дымка, при ухудшении видимости до 1 км и менее - туман. В сухую погоду видимость может ухудшаться дымом, пылью или мглою.
Явления - указаны атмосферные явления, наблюдавшиеся в срок или в последний час перед сроком; фигурными скобками обозначены явления, наблюдавшиеся между сроками (за 1-3 часа до срока); квадратными скобками обозначены град или гололедные отложения с указанием их диаметра в мм.
Облачность - указаны через наклонную черту общая и нижняя облачность в баллах и высота нижней границы облаков в метрах; квадратными скобками обозначены формы облаков: Ci - перистые, Cs - перисто-слоистые, Cc - перисто-кучевые, Ac - высококучевые, As - высокослоистые, Sc - слоисто-кучевые, Ns - слоисто-дождевые, Cu - кучевые, Cb - кучево-дождевые. Подробнее классификацию облаков см. в Атласе облаков (PDF).
T - Температура воздуха - температура, измеренная на высоте 2 м над землей.
Td - Температура точки росы - температура, при понижении до которой содержащийся в воздухе водяной пар достигнет насыщения.
f - Относительная влажность воздуха - влажноcть воздуха, измеренная на высоте 2 м над землей.
Te - Эффективная температура - температура, которую ощущает одетый по сезону человек в тени. Характеристика душности погоды. При расчете учитывается влияние влажности воздуха и скорости ветра на теплоощущения человека.
Tes - Эффективная температура на солнце - температура, которую ощущает человек, с поправкой на солнечный нагрев. Характеристика знойности погоды. Зависит от высоты солнца над горизонтом, облачности и скорости ветра. Ночью, в пасмурную погоду, а также при ветре 12 м/с и более поправка равна нулю.
P - Атмосферное давление - приведенное к уровню моря атмосферное давление.
Po - Атмосферное давление - измеренное на уровне метеостанции атмосферное давление.
Tmin - Минимальная температура - минимум температуры воздуха на высоте 2 м над землей.
Tmax - Максимальная температура - максимум температуры воздуха на высоте 2 м над землей.
R - Количество осадков - Количество выпавших осадков за период времени, мм. При наведении курсора мыши на число - период времени, за который выпало указанное количество осадков.
R24 - Количество осадков - Количество выпавших осадков за 24 часа, мм.
S - Снежный покров - Высота снежного покрова, см. При наведении курсора мыши на число - состояние снежного покрова и степень покрытия местности в баллах.